This is the latest recevied weather packets stored in our database for station/object EA1IRT-1. If no packets are shown the sender has not sent any weather packets the latest 10 day(s).
| Time | Temp. | Humidity | Pressure | Rain* | Wind** | Luminosity | Snow |
|---|---|---|---|---|---|---|---|
| 1777708220 | 17.22° C | 99% | 1016.4 hPa | - | - | - | - |
| 1777707296 | 17.22° C | 100% | 1016.2 hPa | - | - | - | - |
| 1777706396 | 16.11° C | 100% | 1016.3 hPa | - | - | - | - |
| 1777705496 | 15.56° C | 100% | 1016.2 hPa | - | - | - | - |
| 1777704596 | 15.56° C | 100% | 1016.3 hPa | - | - | - | - |
| 1777703703 | 15.56° C | 100% | 1016.1 hPa | - | - | - | - |
| 1777702796 | 15° C | 100% | 1016.1 hPa | - | - | - | - |
| 1777701896 | 14.44° C | 100% | 1015.9 hPa | - | - | - | - |
| 1777700996 | 13.89° C | 100% | 1015.9 hPa | - | - | - | - |
| 1777700102 | 13.89° C | 100% | 1015.8 hPa | - | - | - | - |
| 1777699202 | 14.44° C | 100% | 1015.8 hPa | - | - | - | - |
| 1777698295 | 14.44° C | 100% | 1015.8 hPa | - | - | - | - |
| 1777697377 | 14.44° C | 100% | 1015.8 hPa | - | - | - | - |
| 1777696446 | 13.89° C | 100% | 1015.7 hPa | - | - | - | - |
| 1777695553 | 13.33° C | 100% | 1015.8 hPa | - | - | - | - |
| 1777694646 | 13.33° C | 100% | 1016 hPa | - | - | - | - |
| 1777693746 | 13.89° C | 100% | 1016.1 hPa | - | - | - | - |
| 1777692846 | 13.89° C | 100% | 1016.3 hPa | - | - | - | - |
| 1777691946 | 14.44° C | 100% | 1016.2 hPa | - | - | - | - |
| 1777691046 | 14.44° C | 100% | 1016.3 hPa | - | - | - | - |
| 1777690152 | 15° C | 100% | 1016.4 hPa | - | - | - | - |
| 1777689245 | 15° C | 100% | 1016.4 hPa | - | - | - | - |
| 1777688345 | 15° C | 100% | 1016.8 hPa | - | - | - | - |
| 1777687445 | 15° C | 100% | 1016.6 hPa | - | - | - | - |
| 1777686520 | 15.56° C | 100% | 1016.6 hPa | - | - | - | - |
* Rain since midnight (hover to see other rain measurements)
** Current wind speed in m/s (hover to see current wind gust speed)